H1 CPF 2 NER 2025 9 1 9 244 01 glonass132 H2 1401201 9132 39620 2025 9 1 0 0 0 2025 9 4 23 45 0 900 1 1 0 0 0 1 H9 10 0 60919 0.00000 0 -19518613.468 11463000.318 11812502.367 10 0 60919 900.00000 0 -20673243.304 12036781.184 8922441.245 10 0 60919 1800.00000 0 -21444010.594 12555410.016 5859535.141 10 0 60919 2700.00000 0 -21830295.145 12960518.129 2683100.545 10 0 60919 3600.00000 0 -21844770.024 13196230.053 -545327.883 10 0 60919 4500.00000 0 -21512720.771 13211712.014 -3763181.555 10 0 60919 5400.00000 0 -20870853.310 12963522.880 -6908064.336 10 0 60919 6300.00000 0 -19965640.251 12417668.075 -9918958.055 10 0 60919 7200.00000 0 -18851274.583 11551269.064 -12737403.967 10 0 60919 8100.00000 0 -17587316.252 10353776.789 -15308637.298 10 0 60919 9000.00000 0 -16236130.072 8827676.324 -17582652.840 10 0 60919 9900.00000 0 -14860222.308 6988651.083 -19515180.717 10 0 60919 10800.00000 0 -13519587.665 4865197.456 -21068553.134 10 0 60919 11700.00000 0 -12269178.108 2497703.658 -22212444.951 10 0 60919 12600.00000 0 -11156600.048 -62970.927 -22924473.223 10 0 60919 13500.00000 0 -10220136.955 -2757358.665 -23190643.520 10 0 60919 14400.00000 0 -9487180.925 -5519612.917 -23005633.669 10 0 60919 15300.00000 0 -8973139.716 -8280011.987 -22372908.652 10 0 60919 16200.00000 0 -8680865.731 -10967634.393 -21304663.562 10 0 60919 17100.00000 0 -8600631.511 -13513094.438 -19821594.899 10 0 60919 18000.00000 0 -8710653.099 -15851224.107 -17952503.844 10 0 60919 18900.00000 0 -8978139.361 -17923589.168 -15733738.591 10 0 60919 19800.00000 0 -9360822.779 -19680734.016 -13208486.175 10 0 60919 20700.00000 0 -9808906.579 -21084060.911 -10425927.449 10 0 60919 21600.00000 0 -10267344.991 -22107264.624 -7440271.977 10 0 60919 22500.00000 0 -10678359.016 -22737262.286 -4309692.158 10 0 60919 23400.00000 0 -10984079.784 -22974579.719 -1095178.389 10 0 60919 24300.00000 0 -11129206.053 -22833178.764 2140661.255 10 0 60919 25200.00000 0 -11063561.821 -22339734.060 5334832.122 10 0 60919 26100.00000 0 -10744444.393 -21532391.254 8425189.471 10 0 60919 27000.00000 0 -10138662.484 -20459060.722 11351655.092 10 0 60919 27900.00000 0 -9224177.422 -19175320.469 14057389.485 10 0 60919 28800.00000 0 -7991277.780 -17742018.198 16489896.233 10 0 60919 29700.00000 0 -6443237.772 -16222674.815 18602037.060 10 0 60919 30600.00000 0 -4596431.870 -14680799.405 20352938.304 10 0 60919 31500.00000 0 -2479901.003 -13177228.796 21708772.003 10 0 60919 32400.00000 0 -134388.723 -11767603.026 22643397.695 10 0 60919 33300.00000 0 2389112.375 -10500081.638 23138853.854 10 0 60919 34200.00000 0 5031243.527 -9413395.129 23185690.952 10 0 60919 35100.00000 0 7726514.120 -8535311.360 22783141.035 10 0 60919 36000.00000 0 10405795.406 -7881579.270 21939121.736 10 0 60919 36900.00000 0 12998971.196 -7455392.216 20670075.448 10 0 60919 37800.00000 0 15437636.871 -7247391.785 19000647.237 10 0 60919 38700.00000 0 17657736.271 -7236210.572 16963207.751 10 0 60919 39600.00000 0 19602028.496 -7389530.294 14597230.035 10 0 60919 40500.00000 0 21222283.644 -7665610.361 11948531.706 10 0 60919 41400.00000 0 22481117.457 -8015222.640 9068396.256 10 0 60919 42300.00000 0 23353389.515 -8383911.306 6012589.593 10 0 60919 43200.00000 0 23827107.393 -8714483.082 2840289.894 10 0 60919 44100.00000 0 23903799.436 -8949623.443 -387049.429 10 0 60919 45000.00000 0 23598340.627 -9034528.854 -3606882.313 10 0 60919 45900.00000 0 22938238.645 -8919444.167 -6756775.866 10 0 60919 46800.00000 0 21962409.590 -8561997.957 -9775616.472 10 0 60919 47700.00000 0 20719494.157 -7929236.675 -12604792.956 10 0 60919 48600.00000 0 19265784.250 -6999270.848 -15189333.967 10 0 60919 49500.00000 0 17662846.385 -5762462.486 -17478977.483 10 0 60919 50400.00000 0 15974941.072 -4222101.873 -19429151.450 10 0 60919 51300.00000 0 14266345.992 -2394543.166 -21001846.331 10 0 60919 52200.00000 0 12598694.976 -308790.725 -22166362.240 10 0 60919 53100.00000 0 11028444.299 1994448.848 -22899915.722 10 0 60919 54000.00000 0 9604572.596 4464211.575 -23188093.823 10 0 60919 54900.00000 0 8366611.075 7041159.582 -23025145.983 10 0 60919 55800.00000 0 7343086.959 9659826.176 -22414107.290 10 0 60919 56700.00000 0 6550445.822 12251130.092 -21366749.889 10 0 60919 57600.00000 0 5992498.372 14745054.783 -19903362.603 10 0 60919 58500.00000 0 5660415.105 17073381.182 -18052362.274 10 0 60919 59400.00000 0 5533269.019 19172359.719 -15849743.734 10 0 60919 60300.00000 0 5579103.196 20985209.498 -13338378.628 10 0 60919 61200.00000 0 5756477.592 22464339.466 -10567176.693 10 0 60919 62100.00000 0 6016428.723 23573197.951 -7590126.000 10 0 60919 63000.00000 0 6304758.096 24287672.611 -4465231.476 10 0 60919 63900.00000 0 6564551.048 24596981.864 -1253373.342 10 0 60919 64800.00000 0 6738817.654 24504020.654 1982891.093 10 0 60919 65700.00000 0 6773142.184 24025146.741 5180557.615 10 0 60919 66600.00000 0 6618227.354 23189417.652 8277411.891 10 0 60919 67500.00000 0 6232224.352 22037311.883 11213247.607 10 0 60919 68400.00000 0 5582749.085 20618989.797 13931041.316 10 0 60919 69300.00000 0 4648498.842 18992169.001 16378060.567 10 0 60919 70200.00000 0 3420400.886 17219704.926 18506883.746 10 0 60919 71100.00000 0 1902244.589 15366979.228 20276312.186 10 0 60919 72000.00000 0 110770.714 13499206.111 21652157.682 10 0 60919 72900.00000 0 -1924785.692 11678769.341 22607891.320 10 0 60919 73800.00000 0 -4163679.548 9962700.721 23125142.452 10 0 60919 74700.00000 0 -6555126.095 8400404.255 23194039.607 10 0 60919 75600.00000 0 -9040196.375 7031719.415 22813388.143 10 0 60919 76500.00000 0 -11554059.634 5885402.440 21990682.376 10 0 60919 77400.00000 0 -14028480.286 4978087.075 20741952.789 10 0 60919 78300.00000 0 -16394466.929 4313766.176 19091451.765 10 0 60919 79200.00000 0 -18584964.730 3883814.096 17071183.963 10 0 60919 80100.00000 0 -20537480.713 3667547.568 14720290.126 10 0 60919 81000.00000 0 -22196534.191 3633300.581 12084295.619 10 0 60919 81900.00000 0 -23515831.618 3739967.623 9214237.387 10 0 60919 82800.00000 0 -24460076.199 3938950.332 6165685.296 10 0 60919 83700.00000 0 -25006337.475 4176425.764 2997675.825 10 0 60919 84600.00000 0 -25144923.993 4395841.098 -228422.137 10 0 60919 85500.00000 0 -24879722.567 4540529.909 -3450088.163 10 0 60920 0.00000 0 -24227989.678 4556339.883 -6604855.247 10 0 60920 900.00000 0 -23219602.753 4394161.040 -9631517.585 10 0 60920 1800.00000 0 -21895802.925 4012247.422 -12471313.754 10 0 60920 2700.00000 0 -20307479.931 3378233.567 -15069068.033 10 0 60920 3600.00000 0 -18513070.987 2470759.538 -17374263.467 10 0 60920 4500.00000 0 -16576160.609 1280634.475 -19342027.345 10 0 60920 5400.00000 0 -14562881.287 -188512.207 -20934009.474 10 0 60920 6300.00000 0 -12539223.319 -1920121.551 -22119135.845 10 0 60920 7200.00000 0 -10568366.110 -3885144.641 -22874222.616 10 0 60920 8100.00000 0 -8708142.446 -6043014.947 -23184437.948 10 0 60920 9000.00000 0 -7008741.853 -8343114.931 -23043602.061 10 0 60920 9900.00000 0 -5510749.328 -10726677.472 -22454318.901 10 0 60920 10800.00000 0 -4243601.726 -13129044.120 -21427936.037 10 0 60920 11700.00000 0 -3224526.660 -15482186.868 -19984332.677 10 0 60920 12600.00000 0 -2458008.509 -17717388.534 -18151539.151 10 0 60920 13500.00000 0 -1935803.823 -19767969.726 -15965194.564 10 0 60920 14400.00000 0 -1637505.087 -21571947.950 -13467852.725 10 0 60920 15300.00000 0 -1531628.425 -23074516.819 -10708149.756 10 0 60920 16200.00000 0 -1577178.306 -24230240.680 -7739849.785 10 0 60920 17100.00000 0 -1725621.818 -25004871.859 -4620787.888 10 0 60920 18000.00000 0 -1923187.415 -25376713.640 -1411731.835 10 0 60920 18900.00000 0 -2113389.068 -25337471.543 1824813.988 10 0 60920 19800.00000 0 -2239667.093 -24892557.332 5025837.859 10 0 60920 20700.00000 0 -2248032.094 -24060833.665 8129057.827 10 0 60920 21600.00000 0 -2089598.536 -22873811.204 11074141.368 10 0 60920 22500.00000 0 -1722899.534 -21374333.318 13803882.897 10 0 60920 23400.00000 0 -1115884.198 -19614805.126 16265315.653 10 0 60920 24300.00000 0 -247512.751 -17655042.646 18410736.250 10 0 60920 25200.00000 0 891117.889 -15559833.377 20198622.410 10 0 60920 26100.00000 0 2296165.288 -13396311.222 21594426.843 10 0 60920 27000.00000 0 3950974.724 -11231255.725 22571233.078 10 0 60920 27900.00000 0 5826557.019 -9128428.031 23110261.941 10 0 60920 28800.00000 0 7882590.866 -7146053.778 23201220.327 10 0 60920 29700.00000 0 10068907.914 -5334556.367 22842486.919 10 0 60920 30600.00000 0 12327399.138 -3734633.205 22041132.454 10 0 60920 31500.00000 0 14594263.786 -2375753.023 20812774.989 10 0 60920 32400.00000 0 16802508.315 -1275134.770 19181273.468 10 0 60920 33300.00000 0 18884592.569 -437248.644 17178265.575 10 0 60920 34200.00000 0 20775114.371 146141.603 14842558.522 10 0 60920 35100.00000 0 22413422.062 495398.270 12219383.952 10 0 60920 36000.00000 0 23746047.359 641916.485 9359530.524 10 0 60920 36900.00000 0 24728857.982 626564.562 6318370.044 10 0 60920 37800.00000 0 25328840.856 497723.665 3154795.013 10 0 60920 38700.00000 0 25525441.679 309009.186 -69912.735 10 0 60920 39600.00000 0 25311404.720 116769.632 -3293261.117 10 0 60920 40500.00000 0 24693077.317 -22531.750 -6452752.373 10 0 60920 41400.00000 0 23690165.594 -54942.201 -9487090.206 10 0 60920 42300.00000 0 22334950.702 68459.400 -12337366.259 10 0 60920 43200.00000 0 20670997.365 389252.332 -14948203.028 10 0 60920 44100.00000 0 18751407.677 939673.102 -17268831.029 10 0 60920 45000.00000 0 16636692.214 1741009.372 -19254079.079 10 0 60920 45900.00000 0 14392346.549 2802458.004 -20865258.294 10 0 60920 46800.00000 0 12086233.710 4120497.228 -22070922.276 10 0 60920 47700.00000 0 9785881.405 5678801.425 -22847488.289 10 0 60920 48600.00000 0 7555806.522 7448704.369 -23179706.821 10 0 60920 49500.00000 0 5454978.482 9390193.677 -23060969.761 10 0 60920 50400.00000 0 3534527.374 11453396.805 -22493450.425 10 0 60920 51300.00000 0 1835792.723 13580498.017 -21488071.891 10 0 60920 52200.00000 0 388794.572 15708007.354 -20064303.388 10 0 60920 53100.00000 0 -788809.079 17769287.309 -18249787.880 10 0 60920 54000.00000 0 -1692234.905 19697231.641 -16079807.424 10 0 60920 54900.00000 0 -2329535.817 21426983.864 -13596596.208 10 0 60920 55800.00000 0 -2721013.729 22898580.736 -10848514.531 10 0 60920 56700.00000 0 -2898109.283 24059408.986 -7889099.982 10 0 60920 57600.00000 0 -2901816.716 24866371.122 -4776014.864 10 0 60920 58500.00000 0 -2780692.468 25287668.439 -1569911.324 10 0 60920 59400.00000 0 -2588543.608 25304125.626 1666762.521 10 0 60920 60300.00000 0 -2381895.839 24910001.052 4870990.862 10 0 60920 61200.00000 0 -2217350.178 24113248.818 7980427.545 10 0 60920 62100.00000 0 -2148941.957 22935222.203 10934617.146 10 0 60920 63000.00000 0 -2225615.269 21409831.971 13676175.093 10 0 60920 63900.00000 0 -2488920.722 19582196.100 16151903.219 10 0 60920 64800.00000 0 -2971034.280 17506838.855 18313819.012 10 0 60920 65700.00000 0 -3693180.980 15245515.780 20120078.902 10 0 60920 66600.00000 0 -4664529.724 12864756.451 21535778.485 10 0 60920 67500.00000 0 -5881605.281 10433227.995 22533615.316 10 0 60920 68400.00000 0 -7328241.738 8019029.183 23094402.848 10 0 60920 69300.00000 0 -8976078.997 5687027.129 23207427.007 10 0 60920 70200.00000 0 -10785581.385 3496346.181 22870639.942 10 0 60920 71100.00000 0 -12707535.971 1498111.748 22090688.383 10 0 60920 72000.00000 0 -14684968.497 -266459.081 20882776.944 10 0 60920 72900.00000 0 -16655397.763 -1767542.863 19270369.523 10 0 60920 73800.00000 0 -18553335.552 -2987711.359 17284734.655 10 0 60920 74700.00000 0 -20312928.995 -3922409.550 14964343.343 10 0 60920 75600.00000 0 -21870636.437 -4579891.831 12354130.417 10 0 60920 76500.00000 0 -23167826.303 -4980620.340 9504632.845 10 0 60920 77400.00000 0 -24153191.353 -5156151.498 6471020.775 10 0 60920 78300.00000 0 -24784878.120 -5147557.981 3312039.054 10 0 60920 79200.00000 0 -25032242.749 -5003452.585 88878.821 10 0 60920 80100.00000 0 -24877159.640 -4777697.103 -3135999.726 10 0 60920 81000.00000 0 -24314827.650 -4526892.571 -6300071.176 10 0 60920 81900.00000 0 -23354039.230 -4307756.561 -9341952.467 10 0 60920 82800.00000 0 -22016900.162 -4174498.181 -12202590.939 10 0 60920 83700.00000 0 -20338010.366 -4176301.759 -14826409.946 10 0 60920 84600.00000 0 -18363138.691 -4355025.927 -17162389.753 10 0 60920 85500.00000 0 -16147445.803 -4743216.016 -19165062.570 10 0 60921 0.00000 0 -13753328.426 -5362514.702 -20795402.065 10 0 60921 900.00000 0 -11247972.557 -6222539.792 -22021590.560 10 0 60921 1800.00000 0 -8700720.157 -7320277.283 -22819646.473 10 0 60921 2700.00000 0 -6180354.268 -8640018.314 -23173902.232 10 0 60921 3600.00000 0 -3752418.475 -10153843.927 -23077320.428 10 0 60921 4500.00000 0 -1476681.131 -11822639.528 -22531642.262 10 0 60921 5400.00000 0 595149.781 -13597598.133 -21547364.405 10 0 60921 6300.00000 0 2421365.688 -15422150.771 -20143543.824 10 0 60921 7200.00000 0 3971769.283 -17234243.919 -18347433.570 10 0 60921 8100.00000 0 5228696.021 -18968868.888 -16193955.904 10 0 60921 9000.00000 0 6187502.736 -20560736.865 -13725022.528 10 0 60921 9900.00000 0 6856503.367 -21946986.723 -10988714.996 10 0 60921 10800.00000 0 7256355.443 -23069810.924 -8038341.445 10 0 60921 11700.00000 0 7418924.386 -23878888.000 -4931388.556 10 0 60921 12600.00000 0 7385675.165 -24333518.154 -1728390.115 10 0 60921 13500.00000 0 7205661.060 -24404371.148 1508264.617 10 0 60921 14400.00000 0 6933196.615 -24074772.232 4715558.161 10 0 60921 15300.00000 0 6625315.235 -23341471.711 7831082.368 10 0 60921 16200.00000 0 6339120.903 -22214865.978 10794260.919 10 0 60921 17100.00000 0 6129147.643 -20718661.238 13547532.021 10 0 60921 18000.00000 0 6044839.636 -18888994.982 16037467.634 10 0 60921 18900.00000 0 6128259.130 -16773053.062 18215807.376 10 0 60921 19800.00000 0 6412119.189 -14427241.296 20040387.370 10 0 60921 20700.00000 0 6918224.028 -11914988.917 21475946.770 10 0 60921 21600.00000 0 7656382.100 -9304276.003 22494797.523 10 0 60921 22500.00000 0 8623836.997 -6664987.938 23077345.752 10 0 60921 23400.00000 0 9805239.404 -4066206.534 23212456.174 10 0 60921 24300.00000 0 11173160.768 -1573549.383 22897653.878 10 0 60921 25200.00000 0 12689126.961 753333.561 22139160.826 10 0 60921 26100.00000 0 14305128.788 2863003.999 20951767.216 10 0 60921 27000.00000 0 15965546.645 4714128.808 19358540.748 10 0 60921 27900.00000 0 17609409.695 6276946.496 17390379.502 10 0 60921 28800.00000 0 19172896.143 7534247.617 15085416.820 10 0 60921 29700.00000 0 20591971.260 8481830.134 12488289.108 10 0 60921 30600.00000 0 21805053.985 9128412.217 9649279.883 10 0 60921 31500.00000 0 22755601.487 9495007.270 6623355.707 10 0 60921 32400.00000 0 23394504.251 9613788.056 3469111.688 10 0 60921 33300.00000 0 23682191.721 9526488.014 247646.031 10 0 60921 34200.00000 0 23590360.209 9282406.995 -2978615.291 10 0 60921 35100.00000 0 23103250.218 8936105.299 -6147121.603 10 0 60921 36000.00000 0 22218418.771 8544882.949 -9196405.450 10 0 60921 36900.00000 0 20946973.187 8166150.402 -12067272.166 10 0 60921 37800.00000 0 19313255.104 7854801.559 -14703948.114 10 0 60921 38700.00000 0 17353986.357 7660700.149 -17055165.312 10 0 60921 39600.00000 0 15116910.841 7626386.024 -19075161.197 10 0 60921 40500.00000 0 12658987.526 7785098.890 -20724573.927 10 0 60921 41400.00000 0 10044208.613 8159203.885 -21971215.488 10 0 60921 42300.00000 0 7341132.667 8759086.745 -22790707.174 10 0 60921 43200.00000 0 4620234.566 9582566.651 -23166964.565 10 0 60921 44100.00000 0 1951181.979 10614853.227 -23092521.946 10 0 60921 45000.00000 0 -599848.536 11829051.225 -22568689.098 10 0 60921 45900.00000 0 -2972704.218 13187193.302 -21605536.603 10 0 60921 46800.00000 0 -5115532.003 14641758.883 -20221709.054 10 0 60921 47700.00000 0 -6986702.598 16137616.240 -18444069.013 10 0 60921 48600.00000 0 -8556302.337 17614306.717 -16307177.892 10 0 60921 49500.00000 0 -9807130.518 19008575.106 -13852623.401 10 0 60921 50400.00000 0 -10735160.758 20257039.260 -11128206.433 10 0 60921 51300.00000 0 -11349447.685 21298885.753 -8187003.404 10 0 60921 52200.00000 0 -11671483.953 22078476.940 -5086322.816 10 0 60921 53100.00000 0 -11734036.084 22547758.277 -1886577.302 10 0 60921 54000.00000 0 -11579509.993 22668363.295 1349905.693 10 0 60921 54900.00000 0 -11257917.240 22413326.452 4560110.081 10 0 60921 55800.00000 0 -10824530.009 21768331.050 7681568.840 10 0 60921 56700.00000 0 -10337326.003 20732439.406 10653587.877 10 0 60921 57600.00000 0 -9854333.065 19318274.665 13418431.248 10 0 60921 58500.00000 0 -9430987.154 17551647.162 15922443.998 10 0 60921 59400.00000 0 -9117616.219 15470641.718 18117090.679 10 0 60921 60300.00000 0 -8957156.536 13124204.929 19959889.686 10 0 60921 61200.00000 0 -8983197.670 10570292.268 21415226.055 10 0 60921 62100.00000 0 -9218437.882 7873652.823 22455028.104 10 0 60921 63000.00000 0 -9673614.074 5103344.059 23059296.237 10 0 60921 63900.00000 0 -10346950.330 2330079.684 23216475.106 10 0 60921 64800.00000 0 -11224147.272 -376480.047 22923663.392 10 0 60921 65700.00000 0 -12278912.013 -2950384.416 22186658.384 10 0 60921 66600.00000 0 -13474006.148 -5331886.148 21019835.370 10 0 60921 67500.00000 0 -14762767.882 -7469671.616 19445864.765 10 0 60921 68400.00000 0 -16091045.015 -9322736.836 17495272.516 10 0 60921 69300.00000 0 -17399458.525 -10861833.319 15205852.088 10 0 60921 70200.00000 0 -18625902.937 -12070425.491 12621938.769 10 0 60921 71100.00000 0 -19708179.746 -12945121.445 9793559.545 10 0 60921 72000.00000 0 -20586654.480 -13495560.230 6775474.028 10 0 60921 72900.00000 0 -21206826.788 -13743761.331 3626124.036 10 0 60921 73800.00000 0 -21521706.177 -13722964.098 406511.203 10 0 60921 74700.00000 0 -21493893.778 -13476006.022 -2820976.370 10 0 60921 75600.00000 0 -21097282.402 -13053308.013 -5993766.333 10 0 60921 76500.00000 0 -20318302.744 -12510551.261 -9050310.324 10 0 60921 77400.00000 0 -19156662.259 -11906143.333 -11931274.979 10 0 60921 78300.00000 0 -17625544.224 -11298580.118 -14580692.768 10 0 60921 79200.00000 0 -15751256.896 -10743814.843 -16947050.251 10 0 60921 80100.00000 0 -13572345.598 -10292745.248 -18984292.497 10 0 60921 81000.00000 0 -11138202.982 -9988925.301 -20652723.952 10 0 60921 81900.00000 0 -8507233.737 -9866598.602 -21919787.930 10 0 60921 82800.00000 0 -5744648.712 -9949137.267 -22760709.175 10 0 60921 83700.00000 0 -2919979.079 -10247953.258 -23158986.520 10 0 60921 84600.00000 0 -104413.021 -10761929.303 -23106725.407 10 0 60921 85500.00000 0 2631934.821 -11477394.815 -22604803.081 10 0 60922 0.00000 0 5222707.633 -12368649.105 -21662862.517 10 0 60922 900.00000 0 7607834.142 -13399011.611 -20299133.719 10 0 60922 1800.00000 0 9735790.885 -14522354.666 -18540086.412 10 0 60922 2700.00000 0 11565509.124 -15685056.430 -16419918.468 10 0 60922 3600.00000 0 13067843.171 -16828290.724 -13979890.664 10 0 60922 4500.00000 0 14226540.165 -17890557.356 -11267520.100 10 0 60922 5400.00000 0 15038670.775 -18810345.432 -8335648.201 10 0 60922 6300.00000 0 15514503.553 -19528816.203 -5241401.931 10 0 60922 7200.00000 0 15676829.313 -19992390.906 -2045069.415 10 0 60922 8100.00000 0 15559765.600 -20155133.018 1191086.995 10 0 60922 9000.00000 0 15207093.498 -19980823.131 4404055.731 10 0 60922 9900.00000 0 14670199.038 -19444637.911 7531313.764 10 0 60922 10800.00000 0 14005708.234 -18534361.699 10512051.778 10 0 60922 11700.00000 0 13272917.546 -17251079.502 13288361.856 10 0 60922 12600.00000 0 12531129.903 -15609322.323 15806363.907 10 0 60922 13500.00000 0 11837009.846 -13636659.163 18017248.768 10 0 60922 14400.00000 0 11242069.952 -11372753.365 19878218.043 10 0 60922 15300.00000 0 10790394.457 -8867923.387 21353303.164 10 0 60922 16200.00000 0 10516695.414 -6181268.544 22414048.953 10 0 60922 17100.00000 0 10444782.183 -3378437.951 23040049.840 10 0 60922 18000.00000 0 10586507.414 -529135.320 23219329.825 10 0 60922 18900.00000 0 10941232.480 2295537.443 22948560.285 10 0 60922 19800.00000 0 11495833.680 5025788.693 22233112.664 10 0 60922 20700.00000 0 12225248.058 7595786.670 21086945.951 10 0 60922 21600.00000 0 13093535.442 9946142.225 19532331.692 10 0 60922 22500.00000 0 14055412.112 12026123.566 17599421.974 10 0 60922 23400.00000 0 15058192.080 13795513.033 15325668.516 10 0 60922 24300.00000 0 16044055.193 15226030.566 12755103.520 10 0 60922 25200.00000 0 16952547.726 16302266.244 9937495.364 10 0 60922 26100.00000 0 17723211.380 17022084.308 6927394.534 10 0 60922 27000.00000 0 18298231.045 17396482.744 3783087.305 10 0 60922 27900.00000 0 18624990.652 17448914.919 565476.435 10 0 60922 28800.00000 0 18658429.898 17214101.929 -2663090.162 10 0 60922 29700.00000 0 18363102.583 16736385.550 -5840020.739 10 0 60922 30600.00000 0 17714849.423 16067690.772 -8903688.203 10 0 60922 31500.00000 0 16702013.934 15265183.385 -11794622.532 10 0 60922 32400.00000 0 15326148.899 14388720.893 -14456664.150 10 0 60922 33300.00000 0 13602181.952 13498203.890 -16838055.832 10 0 60922 34200.00000 0 11558031.362 12650939.397 -18892451.774 10 0 60922 35100.00000 0 9233686.002 11899127.326 -20579824.053 10 0 60922 36000.00000 0 6679785.843 11287576.248 -21867248.521 10 0 60922 36900.00000 0 3955760.371 10851745.239 -22729554.481 10 0 60922 37800.00000 0 1127600.790 10616194.986 -23149824.975 10 0 60922 38700.00000 0 -1734642.486 10593514.306 -23119737.383 10 0 60922 39600.00000 0 -4559533.908 10783768.297 -22639736.942 10 0 60922 40500.00000 0 -7276987.696 11174492.426 -21719039.000 10 0 60922 41400.00000 0 -9820950.044 11741233.764 -20375459.101 10 0 60922 42300.00000 0 -12131916.836 12448617.378 -18635073.363 10 0 60922 43200.00000 0 -14159181.728 13251893.421 -16531715.037 10 0 60922 44100.00000 0 -15862720.522 14098899.823 -14106316.489 10 0 60922 45000.00000 0 -17214632.825 14932357.458 -11406109.207 10 0 60922 45900.00000 0 -18200080.723 15692400.188 -8483697.529 10 0 60922 46800.00000 0 -18817685.457 16319231.831 -5396024.588 10 0 60922 47700.00000 0 -19079366.213 16755796.431 -2203251.546 10 0 60922 48600.00000 0 -19009629.024 16950347.510 1032426.909 10 0 60922 49500.00000 0 -18644337.364 16858806.286 4248006.372 10 0 60922 50400.00000 0 -18029018.109 16446807.973 7380910.544 10 0 60922 51300.00000 0 -17216776.410 15691348.833 10370217.662 10 0 60922 52200.00000 0 -16265909.406 14581963.920 13157850.645 10 0 60922 53100.00000 0 -15237321.206 13121385.723 15689707.041 10 0 60922 54000.00000 0 -14191849.495 11325656.147 17916706.682 10 0 60922 54900.00000 0 -13187617.215 9223687.435 19795736.941 10 0 60922 55800.00000 0 -12277521.027 6856290.912 21290477.999 10 0 60922 56700.00000 0 -11506961.803 4274714.465 22372093.246 10 0 60922 57600.00000 0 -10911911.592 1538749.929 23019772.865 10 0 60922 58500.00000 0 -10517396.922 -1285510.960 23221121.522 10 0 60922 59400.00000 0 -10336460.554 -4128179.326 22972384.153 10 0 60922 60300.00000 0 -10369643.696 -6918227.665 22278506.745 10 0 60922 61200.00000 0 -10605008.995 -9586195.103 21153031.847 10 0 60922 62100.00000 0 -11018702.297 -12066828.837 19617831.469 10 0 60922 63000.00000 0 -11576028.955 -14301553.980 17702682.641 10 0 60922 63900.00000 0 -12232999.314 -16240671.134 15444693.650 10 0 60922 64800.00000 0 -12938278.698 -17845192.154 12887591.463 10 0 60922 65700.00000 0 -13635460.502 -19088239.346 10080883.314 10 0 60922 66600.00000 0 -14265567.570 -19955951.053 7078907.730 10 0 60922 67500.00000 0 -14769677.374 -20447856.821 3939792.362 10 0 60922 68400.00000 0 -15091561.164 -20576707.056 724337.853 10 0 60922 69300.00000 0 -15180226.368 -20367764.547 -2505151.411 10 0 60922 70200.00000 0 -14992255.184 -19857587.552 -5686067.693 10 0 60922 71100.00000 0 -14493840.521 -19092355.263 -8756708.575 10 0 60922 72000.00000 0 -13662432.704 -18125805.645 -11657470.752 10 0 60922 72900.00000 0 -12487926.379 -17016871.900 -14332005.880 10 0 60922 73800.00000 0 -10973336.053 -15827116.582 -16728316.032 10 0 60922 74700.00000 0 -9134929.887 -14618070.995 -18799767.346 10 0 60922 75600.00000 0 -7001813.965 -13448591.657 -20506001.956 10 0 60922 76500.00000 0 -4614982.149 -12372345.027 -21813730.214 10 0 60922 77400.00000 0 -2025869.038 -11435526.533 -22697387.371 10 0 60922 78300.00000 0 705535.573 -10674910.210 -23139641.492 10 0 60922 79200.00000 0 3512933.862 -10116311.530 -23131742.109 10 0 60922 80100.00000 0 6326236.486 -9773528.768 -22673702.081 10 0 60922 81000.00000 0 9074244.544 -9647808.151 -21774308.350 10 0 60922 81900.00000 0 11687385.847 -9727855.990 -20450960.474 10 0 60922 82800.00000 0 14100391.583 -9990397.846 -18729339.239 10 0 60922 83700.00000 0 16254801.610 -10401261.499 -16642911.081 10 0 60922 84600.00000 0 18101193.483 -10916938.051 -14232277.375 10 0 60922 85500.00000 0 19601041.626 -11486554.946 -11544381.052 99